Location: Newark
(42.9858°N, 0.6717°E)
Time: 23:32:02
(UTC+00:00)

S-56A Canister/Altair - Pass Details

Date: 24 November 2019
Orbit: 632 x 2500 km, 38.9° (Epoch: 14 December)

Event Time Altitude Azimuth Distance (km) Brightness Sun altitude
Rises 16:40:34 0° 254° (WSW) 5,656 14.3 -3.0°
Reaches altitude 10° 16:44:42 10° 253° (WSW) 4,408 13.3 -3.7°
Maximum altitude 16:55:54 66° 174° (S) 1,558 9.2 -5.6°
Drops below altitude 10° 17:03:10 10° 94° (E) 2,943 10.0 -6.8°
Enters shadow 17:04:16 - 93° (E) 3,311 10.2 -7.0°
Sets 17:05:25 0° 91° (E) 3,705 - -7.2°
